When you browse on this site, cookies collect data to enhance your experience and personalize the content and advertising you see.
Visit our Privacy Policy to learn more. By continuing to use the site, you agree to this use of cookies and data.

Stündliche Wetter Jubail

Heute, 29 September, Dienstag

Zeit Temperatur Niederschläge Wind Luftdruck Luftfeuchtigkeit
00:00 +30°C° 0 mm 5 m/S 753 mmHg 46%
01:00 +30°C° 0 mm 5 m/S 753 mmHg 38%
02:00 +30°C° 0 mm 4 m/S 753 mmHg 31%
03:00 +29°C° 0 mm 4 m/S 752 mmHg 23%
04:00 +29°C° 0 mm 4 m/S 753 mmHg 23%
05:00 +29°C° 0 mm 4 m/S 753 mmHg 23%
06:00 +28°C° 0 mm 3 m/S 754 mmHg 24%
07:00 +31°C° 0 mm 3 m/S 754 mmHg 21%
08:00 +34°C° 0 mm 3 m/S 754 mmHg 19%
09:00 +37°C° 0 mm 2 m/S 754 mmHg 16%
10:00 +38°C° 0 mm 2 m/S 754 mmHg 15%
11:00 +40°C° 0 mm 2 m/S 754 mmHg 14%
12:00 +41°C° 0 mm 2 m/S 753 mmHg 14%
13:00 +41°C° 0 mm 2 m/S 753 mmHg 14%
14:00 +42°C° 0 mm 3 m/S 752 mmHg 15%
15:00 +42°C° 0 mm 3 m/S 752 mmHg 16%
16:00 +39°C° 0 mm 3 m/S 752 mmHg 25%
17:00 +36°C° 0 mm 4 m/S 752 mmHg 33%
18:00 +34°C° 0 mm 4 m/S 752 mmHg 42%
19:00 +33°C° 0 mm 4 m/S 752 mmHg 39%
20:00 +33°C° 0 mm 4 m/S 752 mmHg 36%
21:00 +33°C° 0 mm 4 m/S 752 mmHg 34%
22:00 +33°C° 0 mm 5 m/S 752 mmHg 36%
23:00 +32°C° 0 mm 6 m/S 752 mmHg 39%

Morgen, 30 September, Mittwoch

Zeit Temperatur Niederschläge Wind Luftdruck Luftfeuchtigkeit
00:00 +32°C° 0 mm 6 m/S 752 mmHg 41%
01:00 +30°C° 0 mm 6 m/S 752 mmHg 48%
02:00 +30°C° 0 mm 6 m/S 752 mmHg 54%
03:00 +29°C° 0 mm 6 m/S 751 mmHg 60%
04:00 +29°C° 0 mm 6 m/S 752 mmHg 56%
05:00 +28°C° 0 mm 5 m/S 752 mmHg 51%
06:00 +28°C° 0 mm 4 m/S 753 mmHg 46%
07:00 +32°C° 0 mm 4 m/S 753 mmHg 38%
08:00 +34°C° 0 mm 4 m/S 753 mmHg 30%
09:00 +37°C° 0 mm 3 m/S 753 mmHg 22%
10:00 +40°C° 0 mm 4 m/S 753 mmHg 20%
11:00 +42°C° 0 mm 5 m/S 753 mmHg 18%
12:00 +45°C° 0 mm 5 m/S 753 mmHg 16%
13:00 +44°C° 0 mm 6 m/S 752 mmHg 19%
14:00 +44°C° 0 mm 7 m/S 751 mmHg 22%
15:00 +44°C° 0 mm 8 m/S 751 mmHg 24%
16:00 +40°C° 0 mm 8 m/S 751 mmHg 39%
17:00 +38°C° 0 mm 8 m/S 751 mmHg 54%
18:00 +35°C° 0 mm 7 m/S 752 mmHg 68%
19:00 +34°C° 0 mm 7 m/S 752 mmHg 70%
20:00 +34°C° 0 mm 6 m/S 752 mmHg 72%
21:00 +33°C° 0 mm 5 m/S 753 mmHg 74%
22:00 +33°C° 0 mm 5 m/S 753 mmHg 75%
23:00 +33°C° 0 mm 5 m/S 753 mmHg 75%

übermorgen, 1 Oktober, Donnerstag

Zeit Temperatur Niederschläge Wind Luftdruck Luftfeuchtigkeit
00:00 +32°C° 0 mm 6 m/S 753 mmHg 76%
01:00 +32°C° 0 mm 5 m/S 753 mmHg 77%
02:00 +32°C° 0 mm 5 m/S 753 mmHg 78%
03:00 +30°C° 0 mm 5 m/S 752 mmHg 79%
04:00 +30°C° 0 mm 5 m/S 753 mmHg 77%
05:00 +30°C° 0 mm 5 m/S 753 mmHg 76%
06:00 +29°C° 0 mm 4 m/S 754 mmHg 75%
07:00 +31°C° 0 mm 3 m/S 754 mmHg 64%
08:00 +35°C° 0 mm 2 m/S 755 mmHg 53%
09:00 +37°C° 0 mm 2 m/S 755 mmHg 42%
10:00 +39°C° 0 mm 2 m/S 755 mmHg 37%
11:00 +40°C° 0 mm 3 m/S 755 mmHg 32%
12:00 +43°C° 0 mm 4 m/S 754 mmHg 27%
13:00 +42°C° 0 mm 4 m/S 754 mmHg 30%
14:00 +42°C° 0 mm 5 m/S 753 mmHg 33%
15:00 +41°C° 0 mm 5 m/S 753 mmHg 36%
16:00 +39°C° 0 mm 5 m/S 753 mmHg 46%
17:00 +36°C° 0 mm 6 m/S 754 mmHg 57%
18:00 +34°C° 0 mm 6 m/S 754 mmHg 67%
19:00 +34°C° 0 mm 6 m/S 754 mmHg 69%
20:00 +33°C° 0 mm 6 m/S 755 mmHg 72%
21:00 +33°C° 0 mm 6 m/S 755 mmHg 74%
22:00 +32°C° 0 mm 5 m/S 755 mmHg 75%
23:00 +32°C° 0 mm 4 m/S 755 mmHg 76%

2 Oktober, Freitag

Zeit Temperatur Niederschläge Wind Luftdruck Luftfeuchtigkeit
00:00 +30°C° 0 mm 4 m/S 755 mmHg 77%
01:00 +30°C° 0 mm 3 m/S 755 mmHg 74%
02:00 +29°C° 0 mm 3 m/S 755 mmHg 71%
03:00 +29°C° 0 mm 3 m/S 755 mmHg 68%
04:00 +28°C° 0 mm 2 m/S 755 mmHg 69%
05:00 +28°C° 0 mm 2 m/S 756 mmHg 70%
06:00 +27°C° 0 mm 1 m/S 756 mmHg 71%
07:00 +30°C° 0 mm 1 m/S 756 mmHg 59%
08:00 +33°C° 0 mm 1 m/S 757 mmHg 47%
09:00 +37°C° 0 mm 1 m/S 757 mmHg 35%
10:00 +39°C° 0 mm 1 m/S 757 mmHg 29%
11:00 +41°C° 0 mm 2 m/S 757 mmHg 23%
12:00 +43°C° 0 mm 2 m/S 756 mmHg 17%
13:00 +43°C° 0 mm 4 m/S 756 mmHg 24%
14:00 +42°C° 0 mm 6 m/S 756 mmHg 32%
15:00 +40°C° 0 mm 7 m/S 755 mmHg 39%
16:00 +39°C° 0 mm 7 m/S 755 mmHg 47%
17:00 +36°C° 0 mm 6 m/S 755 mmHg 55%
18:00 +34°C° 0 mm 6 m/S 755 mmHg 62%
19:00 +34°C° 0 mm 5 m/S 756 mmHg 64%
20:00 +33°C° 0 mm 5 m/S 756 mmHg 66%
21:00 +33°C° 0 mm 4 m/S 756 mmHg 68%
22:00 +32°C° 0 mm 4 m/S 756 mmHg 68%
23:00 +31°C° 0 mm 3 m/S 756 mmHg 67%

3 Oktober, Samstag

Zeit Temperatur Niederschläge Wind Luftdruck Luftfeuchtigkeit
00:00 +30°C° 0 mm 3 m/S 756 mmHg 67%
01:00 +30°C° 0 mm 3 m/S 755 mmHg 70%
02:00 +29°C° 0 mm 2 m/S 755 mmHg 73%
03:00 +28°C° 0 mm 2 m/S 755 mmHg 76%
04:00 +27°C° 0 mm 2 m/S 756 mmHg 76%
05:00 +27°C° 0 mm 2 m/S 756 mmHg 75%
06:00 +27°C° 0 mm 2 m/S 756 mmHg 74%
07:00 +30°C° 0 mm 2 m/S 756 mmHg 63%
08:00 +32°C° 0 mm 2 m/S 757 mmHg 52%
09:00 +36°C° 0 mm 2 m/S 757 mmHg 42%
10:00 +38°C° 0 mm 2 m/S 757 mmHg 35%
11:00 +40°C° 0 mm 2 m/S 756 mmHg 29%
12:00 +41°C° 0 mm 2 m/S 756 mmHg 22%
13:00 +42°C° 0 mm 3 m/S 755 mmHg 22%
14:00 +42°C° 0 mm 4 m/S 755 mmHg 22%
15:00 +42°C° 0 mm 4 m/S 755 mmHg 22%
16:00 +38°C° 0 mm 4 m/S 755 mmHg 34%
17:00 +36°C° 0 mm 4 m/S 755 mmHg 47%
18:00 +33°C° 0 mm 4 m/S 755 mmHg 59%
19:00 +33°C° 0 mm 4 m/S 755 mmHg 59%
20:00 +33°C° 0 mm 4 m/S 755 mmHg 59%
21:00 +31°C° 0 mm 3 m/S 756 mmHg 59%
22:00 +30°C° 0 mm 3 m/S 756 mmHg 61%
23:00 +30°C° 0 mm 2 m/S 755 mmHg 63%

4 Oktober, Sonntag

Zeit Temperatur Niederschläge Wind Luftdruck Luftfeuchtigkeit
00:00 +29°C° 0 mm 2 m/S 755 mmHg 65%
01:00 +29°C° 0 mm 2 m/S 755 mmHg 64%
02:00 +28°C° 0 mm 2 m/S 755 mmHg 62%
03:00 +28°C° 0 mm 3 m/S 755 mmHg 61%
04:00 +28°C° 0 mm 3 m/S 755 mmHg 56%
05:00 +28°C° 0 mm 3 m/S 756 mmHg 52%
06:00 +29°C° 0 mm 3 m/S 756 mmHg 47%
07:00 +31°C° 0 mm 2 m/S 756 mmHg 40%
08:00 +35°C° 0 mm 2 m/S 757 mmHg 33%
09:00 +36°C° 0 mm 1 m/S 757 mmHg 26%
10:00 +39°C° 0 mm 2 m/S 757 mmHg 23%
11:00 +40°C° 0 mm 2 m/S 756 mmHg 20%
12:00 +43°C° 0 mm 3 m/S 756 mmHg 17%
13:00 +42°C° 0 mm 3 m/S 756 mmHg 18%
14:00 +42°C° 0 mm 4 m/S 755 mmHg 19%
15:00 +42°C° 0 mm 4 m/S 755 mmHg 20%
16:00 +40°C° 0 mm 4 m/S 755 mmHg 30%
17:00 +36°C° 0 mm 4 m/S 755 mmHg 39%
18:00 +34°C° 0 mm 4 m/S 755 mmHg 48%
19:00 +33°C° 0 mm 4 m/S 755 mmHg 49%
20:00 +31°C° 0 mm 3 m/S 756 mmHg 50%
21:00 +31°C° 0 mm 3 m/S 756 mmHg 51%
22:00 +30°C° 0 mm 2 m/S 756 mmHg 53%
23:00 +29°C° 0 mm 2 m/S 756 mmHg 55%
Mehr zeigen